DW3793 Weather Reports


Display with metric or nautical units.
time (UTC)temp
F
wind
direction
speed
MPH
gust
MPH
rain 1hr
in
rain 24hr
in
rain mn
in
humidity
%
barometer
mb
20260831030026 60 295 0.0 2.0 0.00 0.00 0.00 47 1016.3
20260831024525 61 313 1.0 3.0 0.00 0.00 0.00 45 1016.2
20260831023024 65 311 1.0 2.0 0.00 0.00 0.00 41 1016.1
20260831021522 71 113 0.0 1.0 0.00 0.00 0.00 33 1016.0
20260831020022 73 113 0.0 1.0 0.00 0.00 0.00 29 1016.0
20260831014520 74 103 0.0 1.0 0.00 0.00 0.00 28 1016.1
20260831013020 74 78 1.0 3.0 0.00 0.00 0.00 27 1016.1
20260831011516 74 117 0.0 4.0 0.00 0.00 0.00 27 1016.1
20260831010025 73 138 2.0 7.0 0.00 0.00 0.00 27 1016.2
20260831004515 73 152 6.0 10.0 0.00 0.00 0.00 27 1016.2
20260831003014 74 190 5.0 9.0 0.00 0.00 0.00 26 1016.2
20260831001511 75 148 5.0 11.0 0.00 0.00 0.00 25 1016.3
20260831000019 75 126 0.0 3.0 0.00 0.00 0.00 25 1016.3
20260830234507 74 307 0.0 5.0 0.00 0.00 0.00 25 1016.4
20260830233006 73 223 3.0 5.0 0.00 0.00 0.00 26 1016.5
20260830231503 74 240 3.0 11.0 0.00 0.00 0.00 27 1016.7
20260830224609 73 247 1.0 4.0 0.00 0.00 0.00 27 1017.1
20260830223102 72 104 5.0 9.0 0.00 0.00 0.00 28 1017.2
20260830221608 72 151 2.0 9.0 0.00 0.00 0.00 28 1017.2
20260830220049 71 161 3.0 10.0 0.00 0.00 0.00 30 1017.4
20260830214544 70 221 4.0 12.0 0.00 0.00 0.00 33 1017.6
20260830213044 69 132 5.0 10.0 0.00 0.00 0.00 34 1017.9
20260830211539 69 141 4.0 11.0 0.00 0.00 0.00 34 1018.1
20260830210037 68 139 4.0 11.0 0.00 0.00 0.00 35 1018.1
20260830204541 68 151 3.0 12.0 0.00 0.00 0.00 34 1018.2
20260830203038 68 65 3.0 8.0 0.00 0.00 0.00 33 1018.3
20260830201531 67 119 3.0 9.0 0.00 0.00 0.00 34 1018.4
20260830200047 67 162 3.0 10.0 0.00 0.00 0.00 34 1018.5
20260830194525 65 126 1.0 12.0 0.00 0.00 0.00 34 1018.7
20260830193027 65 97 1.0 4.0 0.00 0.00 0.00 36 1018.9
20260830191520 64 101 3.0 11.0 0.00 0.00 0.00 37 1019.1
20260830190019 63 213 2.0 6.0 0.00 0.00 0.00 39 1019.2
20260830184519 62 322 1.0 9.0 0.00 0.00 0.00 41 1019.3
20260830183014 62 138 1.0 4.0 0.00 0.00 0.00 41 1019.4
20260830181513 62 93 3.0 8.0 0.00 0.00 0.00 42 1019.6
20260830180012 61 150 2.0 7.0 0.00 0.00 0.00 43 1019.7
20260830174505 60 248 0.0 5.0 0.00 0.00 0.00 46 1019.9
20260830173003 58 259 1.0 7.0 0.00 0.00 0.00 46 1019.9
20260830171502 58 184 1.0 6.0 0.00 0.00 0.00 50 1020.0
20260830170101 58 184 4.0 9.0 0.00 0.00 0.00 51 1019.9
20260830164609 57 230 2.0 5.0 0.00 0.00 0.00 53 1019.9
20260830163111 57 95 1.0 6.0 0.00 0.00 0.00 52 1019.9
20260830161556 56 143 3.0 7.0 0.00 0.00 0.00 55 1020.0
20260830160051 56 123 1.0 4.0 0.00 0.00 0.00 57 1020.2
20260830154550 56 160 0.0 1.0 0.00 0.00 0.00 59 1020.1
20260830153048 55 286 0.0 1.0 0.00 0.00 0.00 62 1020.1
20260830151544 54 150 0.0 1.0 0.00 0.00 0.00 63 1020.1
20260830150041 51 148 0.0 1.0 0.00 0.00 0.00 69 1020.2
20260830144534 48 162 0.0 1.0 0.00 0.00 0.00 74 1020.1
20260830143031 47 287 0.0 3.0 0.00 0.00 0.00 73 1020.2
20260830141533 44 304 1.0 4.0 0.00 0.00 0.00 77 1020.0
20260830140026 43 321 2.0 4.0 0.00 0.00 0.00 78 1020.0
20260830134526 43 304 1.0 4.0 0.00 0.00 0.00 78 1019.9
20260830133024 42 305 1.0 4.0 0.00 0.00 0.00 78 1019.8
20260830131533 42 296 2.0 7.0 0.00 0.00 0.00 78 1019.7
20260830130016 42 306 2.0 8.0 0.00 0.00 0.00 78 1019.6
20260830124514 42 318 1.0 5.0 0.00 0.00 0.00 79 1019.6
20260830123012 42 271 3.0 5.0 0.00 0.00 0.00 78 1019.5
20260830121509 42 286 1.0 4.0 0.00 0.00 0.00 77 1019.4
20260830120007 42 300 3.0 7.0 0.00 0.00 0.00 78 1019.3
20260830114506 43 318 2.0 5.0 0.00 0.00 0.00 77 1019.3
20260830113004 43 320 2.0 7.0 0.00 0.00 0.00 78 1019.1
20260830111504 43 297 1.0 3.0 0.00 0.00 0.00 77 1019.3
20260830110058 43 312 2.0 5.0 0.00 0.00 0.00 77 1019.2
20260830104557 43 299 1.0 6.0 0.00 0.00 0.00 77 1019.1
20260830103054 43 268 0.0 4.0 0.00 0.00 0.00 76 1019.0
20260830101553 44 277 2.0 4.0 0.00 0.00 0.00 75 1019.0
20260830100115 44 274 1.0 4.0 0.00 0.00 0.00 75 1018.9
20260830094522 45 304 3.0 7.0 0.00 0.00 0.00 73 1018.8
20260830093022 44 342 2.0 5.0 0.00 0.00 0.00 75 1018.7
20260830093020 44 304 2.0 5.0 0.00 0.00 0.00 75 1018.7
20260830091519 44 293 1.0 4.0 0.00 0.00 0.00 74 1018.8
20260830090019 44 320 0.0 2.0 0.00 0.00 0.00 74 1018.8
20260830084517 44 288 1.0 4.0 0.00 0.00 0.00 73 1018.7
20260830081513 45 291 1.0 3.0 0.00 0.00 0.00 70 1018.6
20260830080004 45 317 0.0 4.0 0.00 0.00 0.00 69 1018.4
20260830074501 46 298 2.0 5.0 0.00 0.00 0.00 67 1018.5
20260830071601 46 303 2.0 4.0 0.00 0.00 0.00 66 1018.4
20260830070058 47 300 2.0 5.0 0.00 0.00 0.00 65 1018.4
20260830064556 47 314 0.0 1.0 0.00 0.00 0.00 65 1018.4
20260830061531 47 338 1.0 3.0 0.00 0.00 0.00 64 1018.4
20260830060030 47 296 1.0 4.0 0.00 0.00 0.00 63 1018.4
20260830054600 47 293 1.0 4.0 0.00 0.00 0.00 64 1018.4
20260830053058 48 332 0.0 4.0 0.00 0.00 0.00 63 1018.5
20260830051551 49 314 0.0 2.0 0.00 0.00 0.00 61 1018.4
20260830050052 49 36 3.0 6.0 0.00 0.00 0.00 63 1018.4
20260830044552 49 285 1.0 3.0 0.00 0.00 0.00 60 1018.2
20260830043048 50 288 2.0 4.0 0.00 0.00 0.00 60 1018.0
20260830041549 50 296 1.0 3.0 0.00 0.00 0.00 59 1017.9
20260830040038 51 283 0.0 3.0 0.00 0.00 0.00 58 1017.9
20260830034538 52 286 0.0 3.0 0.00 0.00 0.00 58 1017.7
20260830033033 53 327 0.0 2.0 0.00 0.00 0.00 55 1017.6
20260830031501 56 193 0.0 1.0 0.00 0.00 0.00 51 1017.3